EN

Hourly Weather Tlyarata

Today, 20 April, Tuesday

Time Temperature Precipitation Wind Pressure Humidity
00:00 +10°C° 0 mm 2 mps 641 mmHg 72%
01:00 +10°C° 0 mm 3 mps 641 mmHg 73%
02:00 +10°C° 0 mm 3 mps 641 mmHg 73%
03:00 +10°C° 0 mm 3 mps 641 mmHg 76%
04:00 +10°C° 0 mm 3 mps 641 mmHg 77%
05:00 +10°C° 0 mm 3 mps 641 mmHg 78%
06:00 +11°C° 0 mm 3 mps 641 mmHg 78%
07:00 +12°C° 0 mm 3 mps 641 mmHg 77%
08:00 +13°C° 0 mm 3 mps 641 mmHg 76%
09:00 +16°C° 0 mm 3 mps 641 mmHg 75%
10:00 +17°C° 0 mm 3 mps 641 mmHg 70%
11:00 +18°C° 0 mm 4 mps 641 mmHg 66%
12:00 +19°C° 0 mm 4 mps 641 mmHg 61%
13:00 +19°C° 0.1 mm 4 mps 641 mmHg 60%
14:00 +19°C° 0.1 mm 4 mps 641 mmHg 58%
15:00 +20°C° 0.1 mm 4 mps 640 mmHg 57%
16:00 +18°C° 1.9 mm 3 mps 640 mmHg 68%
17:00 +16°C° 1.9 mm 3 mps 640 mmHg 79%
18:00 +13°C° 1.9 mm 3 mps 640 mmHg 90%
19:00 +12°C° 0.6 mm 3 mps 640 mmHg 89%
20:00 +12°C° 0.6 mm 3 mps 640 mmHg 87%
21:00 +11°C° 0.6 mm 3 mps 640 mmHg 86%
22:00 +12°C° 0.6 mm 3 mps 640 mmHg 88%
23:00 +12°C° 0.6 mm 3 mps 640 mmHg 90%

Tomorrow, 21 April, Wednesday

Time Temperature Precipitation Wind Pressure Humidity
00:00 +12°C° 0.6 mm 3 mps 640 mmHg 92%
01:00 +12°C° 0.1 mm 3 mps 640 mmHg 90%
02:00 +12°C° 0.1 mm 3 mps 640 mmHg 87%
03:00 +12°C° 0.1 mm 3 mps 640 mmHg 84%
04:00 +12°C° 0 mm 3 mps 640 mmHg 81%
05:00 +12°C° 0 mm 3 mps 640 mmHg 78%
06:00 +12°C° 0 mm 3 mps 640 mmHg 75%
07:00 +14°C° 0.1 mm 3 mps 640 mmHg 69%
08:00 +17°C° 0.1 mm 3 mps 641 mmHg 64%
09:00 +19°C° 0.1 mm 4 mps 641 mmHg 58%
10:00 +19°C° 0.3 mm 4 mps 641 mmHg 56%
11:00 +20°C° 0.3 mm 5 mps 641 mmHg 54%
12:00 +21°C° 0.3 mm 5 mps 641 mmHg 51%
13:00 +20°C° 0.6 mm 4 mps 641 mmHg 57%
14:00 +19°C° 0.6 mm 4 mps 641 mmHg 63%
15:00 +18°C° 0.6 mm 3 mps 641 mmHg 69%
16:00 +17°C° 1.5 mm 3 mps 641 mmHg 75%
17:00 +16°C° 1.5 mm 3 mps 641 mmHg 81%
18:00 +15°C° 1.5 mm 2 mps 641 mmHg 87%
19:00 +14°C° 0.3 mm 2 mps 641 mmHg 89%
20:00 +13°C° 0.3 mm 2 mps 641 mmHg 91%
21:00 +13°C° 0.3 mm 2 mps 641 mmHg 93%
22:00 +13°C° 0.5 mm 2 mps 641 mmHg 94%
23:00 +13°C° 0.5 mm 2 mps 641 mmHg 95%

Day after tomorrow, 22 April, Thursday

Time Temperature Precipitation Wind Pressure Humidity
00:00 +13°C° 0.5 mm 2 mps 641 mmHg 95%
01:00 +12°C° 0.7 mm 2 mps 641 mmHg 95%
02:00 +12°C° 0.7 mm 2 mps 641 mmHg 94%
03:00 +12°C° 0.7 mm 2 mps 641 mmHg 93%
04:00 +12°C° 0.6 mm 2 mps 641 mmHg 92%
05:00 +12°C° 0.6 mm 2 mps 641 mmHg 91%
06:00 +12°C° 0.6 mm 2 mps 641 mmHg 89%
07:00 +12°C° 0.6 mm 3 mps 641 mmHg 85%
08:00 +14°C° 0.6 mm 3 mps 642 mmHg 81%
09:00 +15°C° 0.6 mm 4 mps 642 mmHg 77%
10:00 +15°C° 0.3 mm 4 mps 642 mmHg 75%
11:00 +17°C° 0.3 mm 4 mps 642 mmHg 72%
12:00 +18°C° 0.3 mm 4 mps 642 mmHg 70%
13:00 +17°C° 0.2 mm 4 mps 642 mmHg 69%
14:00 +17°C° 0.2 mm 3 mps 642 mmHg 68%
15:00 +17°C° 0.2 mm 3 mps 641 mmHg 68%
16:00 +16°C° 1.4 mm 3 mps 641 mmHg 76%
17:00 +14°C° 1.4 mm 3 mps 641 mmHg 85%
18:00 +12°C° 1.4 mm 3 mps 641 mmHg 93%
19:00 +12°C° 0.8 mm 3 mps 641 mmHg 94%
20:00 +12°C° 0.8 mm 2 mps 641 mmHg 95%
21:00 +12°C° 0.8 mm 2 mps 640 mmHg 96%
22:00 +12°C° 0.5 mm 2 mps 640 mmHg 96%
23:00 +12°C° 0.5 mm 2 mps 640 mmHg 96%

23 April, Friday

Time Temperature Precipitation Wind Pressure Humidity
00:00 +11°C° 0.5 mm 3 mps 640 mmHg 96%
01:00 +11°C° 0.3 mm 3 mps 639 mmHg 96%
02:00 +11°C° 0.3 mm 3 mps 639 mmHg 95%
03:00 +11°C° 0.3 mm 3 mps 639 mmHg 94%
04:00 +10°C° 0.4 mm 3 mps 639 mmHg 94%
05:00 +10°C° 0.4 mm 3 mps 639 mmHg 95%
06:00 +10°C° 0.4 mm 3 mps 639 mmHg 95%
07:00 +10°C° 0.3 mm 3 mps 640 mmHg 93%
08:00 +10°C° 0.3 mm 3 mps 640 mmHg 91%
09:00 +10°C° 0.3 mm 3 mps 640 mmHg 89%
10:00 +11°C° 0.4 mm 3 mps 640 mmHg 83%
11:00 +12°C° 0.4 mm 4 mps 640 mmHg 77%
12:00 +13°C° 0.4 mm 4 mps 640 mmHg 71%
13:00 +13°C° 0.1 mm 4 mps 641 mmHg 65%
14:00 +13°C° 0.1 mm 4 mps 641 mmHg 59%
15:00 +13°C° 0.1 mm 4 mps 641 mmHg 53%
16:00 +13°C° 0 mm 3 mps 641 mmHg 55%
17:00 +13°C° 0 mm 2 mps 641 mmHg 57%
18:00 +12°C° 0 mm 2 mps 641 mmHg 59%
19:00 +10°C° 0 mm 2 mps 641 mmHg 61%
20:00 +8°C° 0 mm 2 mps 641 mmHg 64%
21:00 +7°C° 0 mm 2 mps 641 mmHg 67%
22:00 +7°C° 0 mm 2 mps 641 mmHg 66%
23:00 +7°C° 0 mm 3 mps 641 mmHg 64%

24 April, Saturday

Time Temperature Precipitation Wind Pressure Humidity
00:00 +5°C° 0 mm 3 mps 641 mmHg 63%
01:00 +6°C° 0 mm 2 mps 641 mmHg 69%
02:00 +6°C° 0 mm 2 mps 641 mmHg 75%
03:00 +6°C° 0 mm 2 mps 641 mmHg 82%
04:00 +6°C° 0 mm 2 mps 641 mmHg 84%
05:00 +7°C° 0 mm 3 mps 641 mmHg 87%
06:00 +7°C° 0 mm 3 mps 641 mmHg 90%
07:00 +8°C° 0 mm 3 mps 641 mmHg 85%
08:00 +9°C° 0 mm 3 mps 641 mmHg 79%
09:00 +10°C° 0 mm 3 mps 641 mmHg 74%
10:00 +11°C° 0 mm 3 mps 641 mmHg 69%
11:00 +12°C° 0 mm 3 mps 641 mmHg 65%
12:00 +13°C° 0 mm 3 mps 641 mmHg 60%
13:00 +14°C° 0 mm 3 mps 641 mmHg 57%
14:00 +14°C° 0 mm 3 mps 642 mmHg 55%
15:00 +16°C° 0 mm 3 mps 642 mmHg 53%
16:00 +14°C° 0 mm 3 mps 642 mmHg 58%
17:00 +14°C° 0 mm 2 mps 641 mmHg 64%
18:00 +13°C° 0 mm 2 mps 641 mmHg 69%
19:00 +12°C° 0 mm 2 mps 641 mmHg 69%
20:00 +10°C° 0 mm 2 mps 641 mmHg 69%
21:00 +9°C° 0 mm 2 mps 641 mmHg 69%
22:00 +9°C° 0 mm 2 mps 641 mmHg 72%
23:00 +9°C° 0 mm 2 mps 641 mmHg 74%

25 April, Sunday

Time Temperature Precipitation Wind Pressure Humidity
00:00 +9°C° 0 mm 2 mps 642 mmHg 76%
01:00 +8°C° 0 mm 2 mps 641 mmHg 80%
02:00 +8°C° 0 mm 2 mps 641 mmHg 84%
03:00 +8°C° 0 mm 2 mps 641 mmHg 88%
04:00 +8°C° 0 mm 2 mps 641 mmHg 85%
05:00 +9°C° 0 mm 2 mps 641 mmHg 83%
06:00 +9°C° 0 mm 2 mps 641 mmHg 81%
07:00 +12°C° 0 mm 2 mps 641 mmHg 73%
08:00 +13°C° 0 mm 3 mps 642 mmHg 66%
09:00 +16°C° 0 mm 3 mps 642 mmHg 58%
10:00 +17°C° 0 mm 4 mps 642 mmHg 56%
11:00 +18°C° 0 mm 4 mps 642 mmHg 55%
12:00 +18°C° 0 mm 4 mps 642 mmHg 53%
13:00 +18°C° 0 mm 4 mps 641 mmHg 52%
14:00 +19°C° 0 mm 4 mps 641 mmHg 52%
15:00 +19°C° 0 mm 4 mps 641 mmHg 51%
16:00 +18°C° 0 mm 4 mps 640 mmHg 57%
17:00 +17°C° 0 mm 3 mps 640 mmHg 63%
18:00 +16°C° 0 mm 3 mps 640 mmHg 69%
19:00 +13°C° 0 mm 3 mps 640 mmHg 72%
20:00 +12°C° 0 mm 3 mps 639 mmHg 76%
21:00 +11°C° 0 mm 3 mps 639 mmHg 79%
22:00 +11°C° 0 mm 3 mps 639 mmHg 78%
23:00 +10°C° 0 mm 3 mps 639 mmHg 77%
Show more

We Need Your Consent

Meteoprog and our Service Providers may store and access personal data such as cookies, device identifiers or other similar technologies on your device and process such data to personalise content and ads, as well as provide social media features and to analyse the traffic.

  • Store and/or access information on your device

    Cookies, device identifiers or other information can be stored or accessed on your device for the purposes indicated above.

  • Personalised ads and content, ad and content measurement, audience insights, and products development

    Ads and content can be personalised based on a profile. More data can be added to better personalise ads and content. Ad and content performance can be measured. Insights about the audience who saw the ads and content can be derived. Such data can be used to develop or improve user’s experience, systems and software.

By clicking ‘I Agree’ you will allow the use of indicated cookies, device identifiers, web beacons or other similar technologies. Your settings can be changed in the browser on your device.

For certain purposes, legitimate interests may be relied on, rather than consent. You can read more about this in our Privacy and Cookie Policy.